Tracking 17780 objects as of 27-July-2016
HD Live streaming from Space Station
objects crossing your sky now

UNHA 3 R/B

Track UNHA 3 R/B now!
10-day predictions


NORAD ID: 39027
Int'l Code: 2012-072B
Perigee: 490.3 km
Apogee: 572.0 km
Inclination: 97.3 °
Period: 95.1 minutes
Semi major axis: 6902 km
RCS: 1.274 m2 (large)
Launch date: December 12, 2012
Source: North Korea (NKOR)
Launch site: Yunsong, DPRK (YUN)

Note: This is a ROCKET BODY
Your satellite tracking list
Your tracking list is empty





NASA's NSSDC Master Catalog

Two Line Element Set (TLE):
1 39027U 12072B   16208.11181985  .00000802  00000-0  45863-4 0  9994
2 39027  97.2656 222.0381 0059247 290.3769  69.1106 15.14055364199612
Source of the keplerian elements: AFSPC

N2YO: 864